This is the latest recevied weather packets stored in our database for station/object VK5GR-12. If no packets are shown the sender has not sent any weather packets the latest 10 day(s).
| Time | Temp. | Humidity | Pressure | Rain* | Wind** | Luminosity | Snow |
|---|---|---|---|---|---|---|---|
| 1777772319 | 16.11° C | 68% | 1011.1 hPa | 0 mm | - | 279 W/m² | - |
| 1777771417 | 16.67° C | 68% | 1011.3 hPa | 0 mm | - | 185 W/m² | - |
| 1777770513 | 15.56° C | 70% | 1011.4 hPa | 0 mm | - | 186 W/m² | - |
| 1777769611 | 16.11° C | 70% | 1011.2 hPa | 0 mm | - | 164 W/m² | - |
| 1777768707 | 15.56° C | 73% | 1011.2 hPa | 0 mm | - | 169 W/m² | - |
| 1777767804 | 15.56° C | 73% | 1011.4 hPa | 0 mm | - | 264 W/m² | - |
| 1777766900 | 15° C | 77% | 1011.5 hPa | 0 mm | - | 336 W/m² | - |
| 1777765998 | 14.44° C | 78% | 1011.6 hPa | 0 mm | - | 165 W/m² | - |
| 1777765094 | 13.89° C | 80% | 1011.6 hPa | 0 mm | - | 219 W/m² | - |
| 1777764189 | 13.33° C | 82% | 1011.7 hPa | 0 mm | - | 69 W/m² | - |
| 1777763288 | 13.33° C | 84% | 1011.6 hPa | 0 mm | - | 94 W/m² | - |
| 1777762385 | 12.78° C | 85% | 1011.6 hPa | 0 mm | - | 67 W/m² | - |
| 1777761481 | 12.22° C | 87% | 1011.4 hPa | 0 mm | - | 47 W/m² | - |
| 1777760580 | 12.22° C | 88% | 1011.4 hPa | 0 mm | - | 39 W/m² | - |
| 1777759675 | 12.22° C | 89% | 1011.4 hPa | 0 mm | - | 26 W/m² | - |
| 1777758770 | 11.67° C | 90% | 1011.3 hPa | 0 mm | - | 29 W/m² | - |
| 1777757868 | 11.67° C | 90% | 1011.1 hPa | 0 mm | - | 10 W/m² | - |
| 1777756968 | 11.67° C | 91% | 1010.9 hPa | 0 mm | - | 3 W/m² | - |
| 1777756063 | 11.67° C | 93% | 1010.7 hPa | 0 mm | - | 0 W/m² | - |
| 1777755159 | 11.67° C | 93% | 1010.5 hPa | 0 mm | - | 0 W/m² | - |
| 1777754258 | 11.67° C | 94% | 1010.5 hPa | 0 mm | - | 0 W/m² | - |
| 1777753354 | 11.67° C | 94% | 1010.5 hPa | 0 mm | - | 0 W/m² | - |
| 1777752449 | 11.67° C | 94% | 1010.4 hPa | 0 mm | - | 0 W/m² | - |
| 1777751546 | 11.67° C | 94% | 1010.2 hPa | 0 mm | - | 0 W/m² | - |
| 1777750646 | 11.67° C | 94% | 1010.3 hPa | 0 mm | - | 0 W/m² | - |
* Rain latest hour (hover to see other rain measurements)
** Current wind speed in m/s (hover to see current wind gust speed)